Home   Weather   Harstad   Past weeks

Flag for Norway Past Weather in Harstad, Norway — Yesterday and Last 2 Weeks

Now
63 °F

Sunny.


Feels Like: 63 °F
Forecast: 50 / 54 °F
Wind: 10 mph from North

Location: Evenes

Current Time: Aug 19, 2017 at 7:12:42 pm

Latest Report: Aug 19, 2017 at 5:50 pm


Visibility: 10 mi

Pressure: 29.62 "Hg

Humidity: 73%

Dew Point: 54 °F

Location of HarstadLocation

Past Weather in Harstad — Graph

°F

Harstad Temperature Yesterday

Maximum temperature yesterday: 68 °F (at 12:50 pm)
Minimum temperature yesterday: 46 °F (at 12:50 am)
Average temperature yesterday: 55 °F

High & Low Weather Summary for the Past Weeks

 TemperatureHumidityPressure
High70 °F (Aug 4, 5:20 pm)100% (Aug 5, 12:20 am)30.12 "Hg (Aug 5, 12:20 am)
Low45 °F (Aug 10, 4:20 am)49% (Aug 5, 12:50 pm)29.33 "Hg (Aug 12, 7:50 am)
Average55 °F88%29.75 "Hg
* Reported Aug 4 5:20 pm — Aug 19 5:50 pm, Harstad. Weather by CustomWeather, © 2017

Note: Actual official high and low records may vary slightly from our data, if they occured in-between our weather recording intervals... More about our weather records

Advertising

Harstad Weather History for the Previous 24 Hours

Scroll right to see more
 ConditionsComfort  
Time TempWeatherWind HumidityBarometerVisibility
5:50 pm
Sat, Aug 19
63 °FSunny.10 mph73%29.62 "Hg10 mi
4:50 pm66 °FPassing clouds.9 mph60%29.62 "HgN/A
3:50 pm66 °FSunny.10 mph64%29.62 "Hg10 mi
2:50 pm70 °FPassing clouds.8 mph60%29.62 "HgN/A
2:20 pm68 °FPassing clouds.9 mph60%29.65 "HgN/A
1:50 pm70 °FPassing clouds.8 mph60%29.65 "HgN/A
12:50 pm68 °FPassing clouds.7 mph64%29.68 "HgN/A
11:50 am66 °FPassing clouds.5 mph68%29.65 "HgN/A
10:50 am66 °FSunny.2 mph64%29.68 "Hg10 mi
10:20 am64 °FSunny.1 mph64%29.68 "Hg10 mi
8:50 am59 °FSunny.1 mph82%29.68 "Hg10 mi
7:50 am54 °FSunny.1 mph100%29.71 "Hg10 mi
6:50 am48 °FSunny.2 mph100%29.71 "Hg10 mi
6:20 am48 °FSunny.No wind100%29.71 "Hg10 mi
5:50 am46 °FCool.No wind100%29.71 "HgN/A
5:20 am46 °FCool.No wind100%29.71 "HgN/A
4:50 am46 °FCool.3 mph100%29.71 "HgN/A
4:20 am48 °FCool.2 mph100%29.71 "HgN/A
3:50 am48 °FCool.No wind100%29.71 "HgN/A
3:20 am48 °FCool.2 mph100%29.74 "HgN/A
2:50 am50 °FCool.3 mph100%29.74 "HgN/A
2:20 am50 °FCool.2 mph100%29.74 "HgN/A
1:50 am52 °FPassing clouds.No wind100%29.74 "HgN/A
1:20 am52 °FPassing clouds.1 mph100%29.74 "HgN/A
12:50 am52 °FPassing clouds.2 mph100%29.74 "HgN/A
12:20 am54 °FPassing clouds.2 mph100%29.74 "HgN/A
11:50 pm
Fri, Aug 18
54 °FPartly cloudy.5 mph100%29.74 "HgN/A
11:20 pm55 °FMostly cloudy.3 mph100%29.74 "HgN/A
10:50 pm57 °FMostly cloudy.6 mph94%29.74 "HgN/A
9:50 pm57 °FPartly cloudy.3 mph100%29.77 "HgN/A
8:50 pm57 °FPartly sunny.3 mph100%29.77 "HgN/A
7:50 pm57 °FSunny.5 mph94%29.77 "Hg10 mi
Weather by CustomWeather, © 2017

See weather overviewHow to use our weather pages